Worland, WY

12:25 AM MDT on October 19, 2017 (GMT -0600)
Worland Municipal

Weather History for KWRL - April, 2013

Change the Weather History Date:

Monday, April 29, 2013

  Actual Average Record
Temperature  
Mean Temperature 56 °F 50 °F  
Max Temperature 72 °F 64 °F 88 °F (1992)
Min Temperature 40 °F 35 °F 24 °F (1990)
Degree Days  
Heating Degree Days 9 15  
Month to date heating degree days 697 566  
Since 1 July heating degree days 7152 7452  
Cooling Degree Days 0 0  
Month to date cooling degree days 0 0  
Year to date cooling degree days 0 0  
Growing Degree Days 6 (Base 50)    
Moisture  
Dew Point 31 °F    
Average Humidity 45    
Maximum Humidity 73    
Minimum Humidity 16    
Precipitation  
Precipitation 0.06 in 0.05 in 0.82 in (1967)
Month to date precipitation 0.96 0.82  
Year to date precipitation 1.55 1.70  
Sea Level Pressure  
Sea Level Pressure 29.59 in    
Wind  
Wind Speed 8 mph (NW)    
Max Wind Speed 31 mph    
Max Gust Speed 38 mph    
Visibility 10 miles    
Events Rain    
T = Trace of Precipitation, MM = Missing Value Source: NWS Daily Summary

Daily Weather History Graph

Daily Weather History Graph

Search for Another Location

Airport or City:

Trip Planner

Search our weather history database for the weather conditions in past years. The results will help you decide how hot, cold, wet, or windy it might be!

Date:

Astronomy

Apr. 29, 2013 Rise Set
Actual Time 6:05 AM MDT 8:13 PM MDT
Civil Twilight 5:34 AM MDT 8:44 PM MDT
Nautical Twilight 4:55 AM MDT 9:23 PM MDT
Astronomical Twilight 4:13 AM MDT 10:06 PM MDT
Moon No Moon Rise 9:26 AM MDT (4/29)
Length of Visible Light 15h 10m
Length of Day
14h 07m
Waning Gibbous, 79% of the Moon is Illuminated
Apr 29
Waning Gibbous
May 2
Last Quarter
May 9
New
May 17
First Quarter
May 24
Full

Hourly Weather History & Observations

Time (MDT) Temp. Windchill Dew Point Humidity Pressure Visibility Wind Dir Wind Speed Gust Speed Precip Events Conditions
12:53 AM 48.9 °F - 37.0 °F 64% 29.75 in 10.0 mi South 4.6 mph - N/A   Mostly Cloudy
1:53 AM 45.0 °F 42.6 °F 36.0 °F 71% 29.73 in 10.0 mi South 4.6 mph - N/A   Clear
2:53 AM 44.1 °F 41.5 °F 35.1 °F 71% 29.71 in 10.0 mi SSW 4.6 mph - N/A   Clear
3:53 AM 44.1 °F 42.5 °F 34.0 °F 68% 29.69 in 10.0 mi Variable 3.5 mph - N/A   Clear
4:53 AM 44.1 °F 40.1 °F 32.0 °F 63% 29.68 in 10.0 mi South 6.9 mph - N/A   Clear
5:53 AM 41.0 °F - 34.0 °F 76% 29.68 in 10.0 mi Calm Calm - N/A   Clear
6:53 AM 46.0 °F 41.0 °F 33.1 °F 61% 29.65 in 10.0 mi SE 10.4 mph - N/A   Clear
7:53 AM 48.9 °F - 34.0 °F 56% 29.64 in 10.0 mi ESE 9.2 mph - N/A   Clear
8:53 AM 55.0 °F - 32.0 °F 42% 29.62 in 10.0 mi ESE 5.8 mph - N/A   Clear
9:53 AM 60.1 °F - 27.0 °F 28% 29.59 in 10.0 mi Calm Calm - N/A   Clear
10:53 AM 63.0 °F - 27.0 °F 26% 29.55 in 10.0 mi West 4.6 mph - N/A   Clear
11:53 AM 66.9 °F - 24.1 °F 20% 29.51 in 10.0 mi Calm Calm - N/A   Clear
12:53 PM 69.1 °F - 23.0 °F 18% 29.47 in 10.0 mi Variable 4.6 mph - N/A   Clear
1:53 PM 71.1 °F - 23.0 °F 16% 29.44 in 10.0 mi North 10.4 mph - N/A   Partly Cloudy
2:53 PM 70.0 °F - 23.0 °F 17% 29.44 in 10.0 mi North 10.4 mph 20.7 mph N/A   Scattered Clouds
3:53 PM 66.9 °F - 23.0 °F 19% 29.43 in 10.0 mi NW 8.1 mph - N/A   Partly Cloudy
4:53 PM 66.9 °F - 25.0 °F 21% 29.42 in 10.0 mi NE 4.6 mph - N/A   Partly Cloudy
5:30 PM 66.2 °F - 26.6 °F 23% 29.49 in 10.0 mi WSW 19.6 mph - N/A   Mostly Cloudy
5:53 PM 66.9 °F - 24.1 °F 20% 29.42 in 10.0 mi West 16.1 mph 28.8 mph N/A   Partly Cloudy
6:53 PM 64.0 °F - 26.1 °F 24% 29.43 in 10.0 mi Variable 4.6 mph - N/A   Partly Cloudy
7:53 PM 52.0 °F - 34.0 °F 50% 29.51 in 10.0 mi North 18.4 mph 26.5 mph N/A   Clear
8:53 PM 46.9 °F - 35.1 °F 63% 29.58 in 10.0 mi North 28.8 mph 36.8 mph N/A   Clear
9:51 PM 44.6 °F 38.4 °F 35.6 °F 71% 29.67 in 10.0 mi North 12.7 mph 26.5 mph N/A   Mostly Cloudy
9:53 PM 44.1 °F 37.4 °F 35.1 °F 71% 29.64 in 10.0 mi North 13.8 mph 26.5 mph N/A   Mostly Cloudy
10:53 PM 44.1 °F 38.6 °F 35.1 °F 71% 29.67 in 10.0 mi NNW 10.4 mph - N/A   Overcast
11:19 PM 42.8 °F 34.3 °F 35.6 °F 76% 29.74 in 6.0 mi North 19.6 mph 26.5 mph 0.00 in Rain Light Rain
11:53 PM 41.0 °F - 37.0 °F 86% 29.70 in 5.0 mi Calm Calm - 0.04 in Rain Light Rain